[Iaude] MPEC G57: 2024 GP [a=1.06,e=0.35,i=11.4,H=23.6]
    mpec at cfa.harvard.edu 
    mpec at cfa.harvard.edu
       
    Fri Apr  5 08:55:20 EDT 2024
    
    
  
M.P.E.C. 2024-G57                                 Issued 2024 April 5, 12:53 UT
     The Minor Planet Electronic Circulars contain information on unusual
         minor planets, routine data on comets and natural satellites,
         and occasional editorial announcements.  They are published
    on behalf of Division F of the International Astronomical Union by the
          Minor Planet Center, Smithsonian Astrophysical Observatory,
                          Cambridge, MA 02138, U.S.A.
			  
             Prepared using the Tamkin Foundation Computer Network
                              MPC at CFA.HARVARD.EDU
            URL https://www.minorplanetcenter.net/    ISSN 1523-6714
                                    2024 GP                                     
Observations:
     K24G00P*KC2024 04 03.79924 11 59 21.88 +64 27 36.0          19.8 GXEG057L51
     K24G00P KC2024 04 03.80188 11 59 23.50 +64 27 00.5          19.7 GXEG057L51
     K24G00P KC2024 04 03.80479 11 59 25.35 +64 26 22.2          19.7 GXEG057L51
     K24G00P KC2024 04 03.88449 12 00 13.61 +64 08 53.6          20.1 GXEG057L51
     K24G00P KC2024 04 03.88694 12 00 15.09 +64 08 20.4          19.8 GXEG057L51
     K24G00P KC2024 04 03.88951 12 00 16.63 +64 07 47.2          19.7 GXEG057L51
     K24G00P KB2024 04 03.90534912 00 34.58 +64 04 13.2          20.1 GXEG057I93
     K24G00P KB2024 04 03.90838912 00 36.32 +64 03 33.9          20.4 GXEG057I93
     K24G00P KB2024 04 03.91129512 00 38.02 +64 02 56.8          19.8 GXEG057I93
     K24G00P 1C2024 04 03.92010 12 00 40.14 +64 00 51.7          20.8 VXEG057033
     K24G00P 1C2024 04 03.92079 12 00 40.55 +64 00 42.6          20.9 VXEG057033
     K24G00P 1C2024 04 03.92113 12 00 40.78 +64 00 38.3          21.0 VXEG057033
     K24G00P KB2024 04 03.95119212 00 58.818+63 54 19.60         19.4 GXEG057D31
     K24G00P KB2024 04 03.96328712 01 05.443+63 51 42.30         19.4 GXEG057D31
     K24G00P KB2024 04 03.97286512 01 11.218+63 49 36.50         18.9 GXEG057D31
     K24G00P KC2024 04 04.12031512 03 00.94 +63 17 44.1          20.0 GXEG057858
     K24G00P KC2024 04 04.12643812 03 04.36 +63 16 29.1          19.8 GXEG057858
     K24G00P KC2024 04 04.13381012 03 08.43 +63 14 58.6          19.8 GXEG057858
     K24G00P KC2024 04 04.23760612 04 03.490+62 53 41.78         19.52GVEG057I52
     K24G00P KC2024 04 04.23877512 04 04.069+62 53 27.17         19.69GVEG057I52
     K24G00P KC2024 04 04.23994812 04 04.652+62 53 12.77         19.78GVEG057I52
     K24G00P KC2024 04 04.24114312 04 05.239+62 52 58.08         19.68GVEG057I52
     K24G00P KC2024 04 05.12675812 11 37.12 +59 59 15.3          19.9 GXEG057858
     K24G00P KC2024 04 05.13322812 11 39.53 +59 58 07.0          20.3 GXEG057858
     K24G00P KC2024 04 05.13878012 11 41.59 +59 57 07.6          19.9 GXEG057858
Observer details:
033 Karl Schwarzschild Observatory, Tautenburg.  Observers S. Melnikov, C.
    Hogner, F. Ludwig, M. Hartmann, B. Stecklum.  Measurer B. Stecklum.
    1.34-m f/3 Schmidt + CCD.
858 Tebbutt Observatory, Edgewood.  Observer F. B. Zoltowski.  0.51-m f/8.1
    Schmidt-Cassegrain + CCD.
D31 Osservatorio Aldebaran, Rivalba.  Observer M. Stefanini.  0.36-m f/6.6
    Schmidt-Cassegrain + CMO.
I52 Steward Observatory, Mt. Lemmon Station.  Observer R. A. Kowalski.
    Measurers T. Beuden, V. F. Carvajal, D. Fay, J. B. Fazekas, D. C. Fuls, A.
    R. Gibbs, A. D. Grauer, H. Groeller, J. K. Hogan, R. A. Kowalski, S. M.
    Larson, G. J. Leonard, D. Rankin, R. L. Seaman, F. C. Shelly, K. W.
    Wierzchos.  1.0-m prime focus + CCD.
I93 St Pardon de Conques.  Observer F. Losse.  0.40-m f/3.7 reflector + CCD.
L51 MARGO, Nauchnyi.  Observer G. Borisov.  0.50-m f/1.9 reflector + CCD.
Orbital elements:
2024 GP                                                  Earth MOID = 0.0312 AU
Epoch 2024 Mar. 31.0 TT = JDT 2460400.5                 Veres                   
M  60.35987              (2000.0)            P               Q                  
n   0.89704097     Peri.  271.26178     +0.02538633     -0.99963224             
a   1.0647832      Node   177.22912     +0.97760496     +0.02283138             
e   0.3486905      Incl.   11.37585     +0.20891164     +0.01463265             
P   1.10           H   23.62          G   0.15           U   8                  
Residuals in seconds of arc
240403 L51  0.6+  0.3+    240403 033  0.1+  0.1-    240404 I52  0.1-  0.0
240403 L51  0.4+  0.6-    240403 033  0.1+  0.1-    240404 I52  0.0   0.2-
240403 L51  0.6+  0.7-    240403 033  0.3+  0.0     240404 I52  0.0   0.0
240403 L51  0.2-  0.1-    240403 D31  0.7+  0.1+    240404 I52  0.0   0.1+
240403 L51  0.0   0.9-    240403 D31  1.5-  1.3+    240405 858  0.1+  0.2+
240403 L51  0.0   0.1-    240403 D31  0.4+  1.1+    240405 858  0.1+  0.3+
240403 I93  0.6+  0.5-    240404 858  0.3-  0.1-    240405 858  0.3+  0.3-
240403 I93  0.1+  0.4-    240404 858  0.1-  0.0
240403 I93  0.0   0.1+    240404 858  0.0   0.1-
Ephemeris:
2024 GP                  a,e,i = 1.06, 0.35, 11                  q = 0.6935
Date    TT    R. A. (2000) Decl.     Delta      r    Elong.  Phase     V
2024 03 06    00 54 47.7 -11 39 53   0.1670  0.8472    27.3   147.5    27.4
...
2024 03 21    01 16 23.0 +14 06 54   0.06249 0.9389    23.1   155.4    27.1
...
2024 03 29    03 13 56.7 +74 38 42   0.04244 0.9883    75.1   102.5    20.5
...
2024 04 04    12 01 31.5 +63 43 12   0.06659 1.0247   109.9    66.6    20.1
2024 04 05    12 10 31.3 +60 22 29   0.07222 1.0307   113.0    63.3    20.2
2024 04 06    12 16 51.8 +57 28 47   0.07808 1.0367   115.5    60.6    20.3
...
2024 04 12    12 34 12.6 +46 08 16   0.1161  1.0719   124.2    50.7    21.0
...
2024 04 20    12 42 44.8 +38 19 45   0.1706  1.1170   127.6    45.4    21.8
...
2024 05 05    12 52 41.5 +30 02 34   0.2800  1.1946   125.9    43.1    22.9
M. P. C. Staff               (C) Copyright 2024 MPC           M.P.E.C. 2024-G57
    
    
More information about the Iaude
mailing list